Location: Izdebno
(52.6670°N, 16.2170°E)
Time: 10:46:50
(UTC+01:00)

Transit 2A - Pass Details

Date: 02 February 2023
Orbit: 591 x 964 km, 66.7° (Epoch: 21 March)

Event Time Altitude Azimuth Distance (km) Brightness Sun altitude
Rises 21:27:39 0° 296° (WNW) 3,247 10.1 -42.2°
Reaches altitude 10° 21:30:38 10° 314° (NW) 2,393 9.2 -42.6°
Enters shadow 21:32:03 15° 327° (NNW) 2,094 8.7 -42.7°
Maximum altitude 21:34:39 20° 0° (N) 1,880 - -43.1°
Drops below altitude 10° 21:38:56 10° 46° (NE) 2,569 - -43.6°
Sets 21:42:17 0° 63° (ENE) 3,566 - -44.0°
